APX641 EBLG-LSZH

Flight info

Callsign APX641
Flight time 1h 1m
Altitude 41000
Route LNO DCT GESLO DCT GOPAS DCT DIK DCT LIMGO DCT SUTAL DCT GT27A DCT AKELU DCT EXHOM DCT GTQ DCT KEZOH DCT POGOL DCT INSOG DCT SHARA DCT TUPOV DCT BLM
Aircraft C25B/M-SDE2E3FGHRWXY/LB1

Departure

Time 2026-05-05 18:11
Airport Liège Airport (EBLG)

Arrival

Time 2026-05-05 19:12
Airport Zürich Airport (LSZH)
Time Latitude Longitude Altitude Speed Heading
2026-05-05 18:00 50.64965 5.46896 611 ft 0 kts 226°
2026-05-05 18:05 50.64963 5.46891 611 ft 3 kts 240°
2026-05-05 18:05 50.64969 5.46786 611 ft 16 kts 277°
2026-05-05 18:06 50.64947 5.46687 611 ft 11 kts 224°
2026-05-05 18:06 50.64899 5.46612 611 ft 18 kts 225°
2026-05-05 18:06 50.64743 5.46363 611 ft 26 kts 225°
2026-05-05 18:06 50.64618 5.46166 611 ft 25 kts 225°
2026-05-05 18:07 50.64496 5.45972 611 ft 25 kts 225°
2026-05-05 18:07 50.64375 5.45780 611 ft 25 kts 225°
2026-05-05 18:07 50.64252 5.45584 610 ft 25 kts 225°
2026-05-05 18:07 50.64129 5.45389 610 ft 25 kts 225°
2026-05-05 18:08 50.64004 5.45192 610 ft 25 kts 225°
2026-05-05 18:08 50.63880 5.44995 611 ft 25 kts 225°
2026-05-05 18:08 50.63758 5.44802 611 ft 25 kts 225°
2026-05-05 18:08 50.63635 5.44607 611 ft 25 kts 225°
2026-05-05 18:09 50.63512 5.44413 617 ft 23 kts 225°
2026-05-05 18:09 50.63405 5.44244 627 ft 23 kts 225°
2026-05-05 18:09 50.63287 5.44057 634 ft 26 kts 225°
2026-05-05 18:09 50.63192 5.43897 635 ft 11 kts 250°
2026-05-05 18:10 50.63235 5.43830 635 ft 12 kts
2026-05-05 18:10 50.63330 5.43823 637 ft 15 kts 353°
2026-05-05 18:10 50.63463 5.43971 631 ft 63 kts 45°
2026-05-05 18:10 50.64068 5.44920 835 ft 165 kts 44°
2026-05-05 18:11 50.65013 5.46364 1800 ft 211 kts 44°
2026-05-05 18:11 50.66101 5.48017 3167 ft 217 kts 44°
2026-05-05 18:11 50.67182 5.49750 4135 ft 226 kts 47°
2026-05-05 18:11 50.68259 5.51584 5096 ft 230 kts 46°
2026-05-05 18:12 50.69392 5.53381 6072 ft 231 kts 43°
2026-05-05 18:12 50.70826 5.54708 6603 ft 253 kts 18°
2026-05-05 18:12 50.72649 5.55134 6846 ft 280 kts 355°
2026-05-05 18:12 50.74516 5.54178 7481 ft 284 kts 333°
2026-05-05 18:13 50.75987 5.52138 8161 ft 286 kts 303°
2026-05-05 18:13 50.76795 5.49311 8814 ft 288 kts 285°
2026-05-05 18:13 50.76795 5.46164 9417 ft 291 kts 252°
2026-05-05 18:13 50.75674 5.43509 10045 ft 294 kts 220°
2026-05-05 18:14 50.73837 5.42182 10620 ft 298 kts 189°
2026-05-05 18:14 50.71792 5.42589 11182 ft 302 kts 158°
2026-05-05 18:14 50.70145 5.44623 11718 ft 306 kts 129°
2026-05-05 18:14 50.68994 5.47464 12232 ft 309 kts 121°
2026-05-05 18:15 50.67883 5.50388 12731 ft 312 kts 122°
2026-05-05 18:15 50.66658 5.53228 13207 ft 315 kts 127°
2026-05-05 18:15 50.65339 5.56000 13701 ft 318 kts 127°
2026-05-05 18:15 50.64055 5.58849 14322 ft 320 kts 125°
2026-05-05 18:16 50.62766 5.61742 14883 ft 324 kts 126°
2026-05-05 18:16 50.61464 5.64656 15421 ft 327 kts 126°
2026-05-05 18:16 50.60134 5.67580 15934 ft 330 kts 127°
2026-05-05 18:16 50.58533 5.70169 16373 ft 333 kts 143°
2026-05-05 18:17 50.56589 5.72154 16830 ft 335 kts 154°
2026-05-05 18:17 50.54402 5.73430 17258 ft 337 kts 161°
2026-05-05 18:17 50.52232 5.74753 17688 ft 340 kts 159°
2026-05-05 18:17 50.50021 5.76078 18100 ft 342 kts 160°
2026-05-05 18:18 50.47773 5.77374 18501 ft 345 kts 160°
2026-05-05 18:18 50.45511 5.78689 18882 ft 347 kts 160°
2026-05-05 18:18 50.43238 5.80020 19250 ft 350 kts 160°
2026-05-05 18:18 50.40953 5.81365 19599 ft 352 kts 160°
2026-05-05 18:19 50.38647 5.82700 19938 ft 354 kts 160°
2026-05-05 18:19 50.36326 5.84060 20258 ft 357 kts 160°
2026-05-05 18:19 50.33983 5.85416 20571 ft 359 kts 160°
2026-05-05 18:19 50.31640 5.86788 20899 ft 362 kts 160°
2026-05-05 18:20 50.29235 5.88176 21277 ft 375 kts 160°
2026-05-05 18:20 50.26785 5.89605 21654 ft 385 kts 160°
2026-05-05 18:20 50.24207 5.91093 22040 ft 394 kts 160°
2026-05-05 18:20 50.21610 5.92602 22422 ft 402 kts 160°
2026-05-05 18:21 50.19001 5.94106 22799 ft 407 kts 160°
2026-05-05 18:21 50.16295 5.95673 23185 ft 412 kts 160°
2026-05-05 18:21 50.13631 5.97208 23583 ft 414 kts 160°
2026-05-05 18:21 50.11004 5.98726 24900 ft 390 kts 160°
2026-05-05 18:22 50.08463 6.00187 25553 ft 391 kts 160°
2026-05-05 18:22 50.05889 6.01666 25954 ft 396 kts 160°
2026-05-05 18:22 50.03291 6.03156 26398 ft 400 kts 160°
2026-05-05 18:22 50.00672 6.04659 26812 ft 403 kts 160°
2026-05-05 18:23 49.98033 6.06175 27203 ft 406 kts 160°
2026-05-05 18:23 49.95372 6.07694 27581 ft 409 kts 160°
2026-05-05 18:23 49.92688 6.09234 27936 ft 412 kts 160°
2026-05-05 18:23 49.89983 6.10774 28276 ft 415 kts 160°
2026-05-05 18:24 49.87268 6.12329 28594 ft 417 kts 160°
2026-05-05 18:24 49.84560 6.14008 28860 ft 420 kts 156°
2026-05-05 18:24 49.81888 6.15872 29142 ft 422 kts 156°
2026-05-05 18:24 49.79194 6.17712 29409 ft 424 kts 156°
2026-05-05 18:25 49.76509 6.19513 29655 ft 427 kts 157°
2026-05-05 18:25 49.74667 6.20757 29865 ft 427 kts 156°
2026-05-05 18:25 49.71076 6.23197 30362 ft 425 kts 156°
2026-05-05 18:25 49.68370 6.25030 30735 ft 423 kts 156°
2026-05-05 18:26 49.65677 6.26849 31108 ft 422 kts 157°
2026-05-05 18:26 49.62988 6.28657 31480 ft 421 kts 156°
2026-05-05 18:26 49.60296 6.30421 31851 ft 420 kts 158°
2026-05-05 18:26 49.57593 6.32120 32222 ft 419 kts 158°
2026-05-05 18:27 49.54905 6.33848 32593 ft 418 kts 158°
2026-05-05 18:27 49.52217 6.35593 32965 ft 417 kts 157°
2026-05-05 18:27 49.49544 6.37327 33336 ft 416 kts 158°
2026-05-05 18:27 49.46872 6.39033 33706 ft 416 kts 158°
2026-05-05 18:28 49.41656 6.42822 34446 ft 414 kts 155°
2026-05-05 18:28 49.39051 6.44686 34816 ft 413 kts 155°
2026-05-05 18:28 49.36446 6.46550 35187 ft 412 kts 156°
2026-05-05 18:29 49.33819 6.48284 35556 ft 411 kts 157°
2026-05-05 18:29 49.31235 6.50021 35922 ft 410 kts 156°
2026-05-05 18:29 49.28628 6.51782 36290 ft 409 kts 156°
2026-05-05 18:29 49.26021 6.53517 36659 ft 408 kts 157°
2026-05-05 18:30 49.23412 6.55246 37029 ft 407 kts 157°
2026-05-05 18:30 49.20814 6.56966 37397 ft 407 kts 157°
2026-05-05 18:30 49.18223 6.58694 37766 ft 406 kts 157°
2026-05-05 18:30 49.15637 6.60407 38134 ft 405 kts 157°
2026-05-05 18:31 49.13057 6.62116 38501 ft 404 kts 157°
2026-05-05 18:31 49.10482 6.63816 38869 ft 403 kts 157°
2026-05-05 18:31 49.07908 6.65517 39237 ft 402 kts 157°
2026-05-05 18:31 49.05347 6.67209 39604 ft 401 kts 157°
2026-05-05 18:32 49.02787 6.68894 39971 ft 400 kts 157°
2026-05-05 18:32 49.00218 6.70485 40333 ft 398 kts 162°
2026-05-05 18:32 48.97521 6.71358 40696 ft 396 kts 173°
2026-05-05 18:32 48.94799 6.71480 40991 ft 396 kts 182°
2026-05-05 18:33 48.89160 6.71242 40993 ft 413 kts 181°
2026-05-05 18:33 48.83317 6.71017 40902 ft 429 kts 181°
2026-05-05 18:34 48.80308 6.70899 40664 ft 433 kts 182°
2026-05-05 18:34 48.77310 6.70779 40425 ft 429 kts 181°
2026-05-05 18:34 48.74330 6.70663 40084 ft 427 kts 182°
2026-05-05 18:34 48.71363 6.70548 39715 ft 426 kts 181°
2026-05-05 18:35 48.68408 6.70430 39346 ft 425 kts 182°
2026-05-05 18:35 48.65449 6.70317 38976 ft 424 kts 181°
2026-05-05 18:35 48.62499 6.70199 38606 ft 423 kts 181°
2026-05-05 18:35 48.59564 6.70090 38237 ft 422 kts 181°
2026-05-05 18:36 48.56629 6.69974 37867 ft 421 kts 181°
2026-05-05 18:36 48.53704 6.69866 37496 ft 420 kts 181°
2026-05-05 18:36 48.50786 6.69750 37126 ft 419 kts 181°
2026-05-05 18:36 48.47875 6.69642 36755 ft 418 kts 181°
2026-05-05 18:37 48.44967 6.69527 36384 ft 417 kts 181°
2026-05-05 18:37 48.42064 6.69420 36013 ft 416 kts 182°
2026-05-05 18:37 48.39178 6.69307 35642 ft 414 kts 181°
2026-05-05 18:37 48.36331 6.69214 35275 ft 413 kts 181°
2026-05-05 18:38 48.33427 6.69138 34898 ft 412 kts 181°
2026-05-05 18:38 48.30595 6.69137 34526 ft 411 kts 176°
2026-05-05 18:38 48.28687 6.69557 34269 ft 411 kts 168°
2026-05-05 18:38 48.25986 6.70914 33891 ft 411 kts 156°
2026-05-05 18:39 48.22741 6.73826 33391 ft 410 kts 142°
2026-05-05 18:39 48.20588 6.76638 33018 ft 409 kts 138°
2026-05-05 18:39 48.19154 6.78563 32768 ft 409 kts 139°
2026-05-05 18:39 48.17038 6.81326 32401 ft 408 kts 140°
2026-05-05 18:40 48.14878 6.84071 32030 ft 407 kts 140°
2026-05-05 18:40 48.12733 6.86839 31657 ft 406 kts 139°
2026-05-05 18:40 48.10596 6.89613 31285 ft 407 kts 139°
2026-05-05 18:40 48.08456 6.92388 30913 ft 407 kts 139°
2026-05-05 18:41 48.06304 6.95149 30541 ft 407 kts 140°
2026-05-05 18:41 48.04165 6.97901 30229 ft 406 kts 139°
2026-05-05 18:41 48.02016 7.00668 29699 ft 410 kts 140°
2026-05-05 18:41 47.99844 7.03459 29152 ft 413 kts 139°
2026-05-05 18:42 47.97658 7.06264 28600 ft 416 kts 140°
2026-05-05 18:42 47.95458 7.09081 28045 ft 418 kts 140°
2026-05-05 18:42 47.93251 7.11909 27488 ft 419 kts 140°
2026-05-05 18:42 47.91037 7.14736 26930 ft 419 kts 140°
2026-05-05 18:43 47.88823 7.17568 26372 ft 419 kts 140°
2026-05-05 18:43 47.86606 7.20389 25814 ft 419 kts 140°
2026-05-05 18:43 47.84395 7.23214 25256 ft 419 kts 140°
2026-05-05 18:43 47.82180 7.26025 24699 ft 418 kts 140°
2026-05-05 18:44 47.80004 7.28800 24150 ft 417 kts 140°
2026-05-05 18:44 47.77798 7.31592 23596 ft 416 kts 140°
2026-05-05 18:44 47.75602 7.34386 23043 ft 415 kts 140°
2026-05-05 18:44 47.73402 7.37164 22491 ft 414 kts 140°
2026-05-05 18:45 47.71219 7.39934 21941 ft 412 kts 140°
2026-05-05 18:45 47.69032 7.42693 21392 ft 411 kts 140°
2026-05-05 18:45 47.66861 7.45437 20847 ft 410 kts 140°
2026-05-05 18:45 47.64810 7.48345 20297 ft 408 kts 130°
2026-05-05 18:46 47.63171 7.51761 19774 ft 406 kts 122°
2026-05-05 18:46 47.61977 7.55537 19277 ft 403 kts 111°
2026-05-05 18:46 47.61070 7.59383 18802 ft 389 kts 109°
2026-05-05 18:46 47.60204 7.63119 18332 ft 377 kts 109°
2026-05-05 18:47 47.59365 7.66736 17867 ft 367 kts 109°
2026-05-05 18:47 47.58526 7.70262 17407 ft 360 kts 109°
2026-05-05 18:47 47.57713 7.73738 16949 ft 354 kts 109°
2026-05-05 18:47 47.56906 7.77147 16499 ft 349 kts 109°
2026-05-05 18:48 47.56118 7.80519 16048 ft 345 kts 109°
2026-05-05 18:48 47.55326 7.83853 15600 ft 341 kts 110°
2026-05-05 18:48 47.54550 7.87151 15158 ft 338 kts 109°
2026-05-05 18:48 47.53783 7.90388 14726 ft 336 kts 110°
2026-05-05 18:49 47.53010 7.93637 14289 ft 334 kts 110°
2026-05-05 18:49 47.52240 7.96875 13858 ft 332 kts 110°
2026-05-05 18:49 47.51481 8.00085 13429 ft 330 kts 109°
2026-05-05 18:49 47.50718 8.03280 13032 ft 328 kts 110°
2026-05-05 18:50 47.49768 8.06187 12985 ft 301 kts 129°
2026-05-05 18:50 47.48190 8.08068 12757 ft 287 kts 152°
2026-05-05 18:50 47.46346 8.08844 12486 ft 277 kts 176°
2026-05-05 18:50 47.44472 8.08532 12216 ft 269 kts 198°
2026-05-05 18:51 47.42859 8.07215 11949 ft 264 kts 219°
2026-05-05 18:51 47.41707 8.05135 11685 ft 262 kts 241°
2026-05-05 18:51 47.41140 8.02600 11422 ft 260 kts 261°
2026-05-05 18:51 47.40850 7.99963 11171 ft 259 kts 259°
2026-05-05 18:52 47.40536 7.97356 11007 ft 255 kts 260°
2026-05-05 18:52 47.40245 7.94813 11003 ft 247 kts 259°
2026-05-05 18:52 47.39960 7.92356 10996 ft 239 kts 261°
2026-05-05 18:52 47.40167 7.89965 10993 ft 237 kts 288°
2026-05-05 18:53 47.40916 7.87812 10993 ft 237 kts 308°
2026-05-05 18:53 47.42154 7.86198 10993 ft 239 kts 327°
2026-05-05 18:53 47.43720 7.85338 10991 ft 243 kts 349°
2026-05-05 18:53 47.45412 7.85366 10992 ft 247 kts 11°
2026-05-05 18:54 47.46998 7.86317 10994 ft 248 kts 33°
2026-05-05 18:54 47.48237 7.88088 10992 ft 250 kts 54°
2026-05-05 18:54 47.48940 7.90430 10992 ft 251 kts 77°
2026-05-05 18:54 47.49242 7.92965 10996 ft 251 kts 81°
2026-05-05 18:55 47.49539 7.95514 11000 ft 252 kts 81°
2026-05-05 18:55 47.49826 7.98046 11003 ft 253 kts 80°
2026-05-05 18:55 47.50132 8.00644 11005 ft 253 kts 81°
2026-05-05 18:55 47.50423 8.03179 11007 ft 254 kts 80°
2026-05-05 18:56 47.50607 8.05758 10998 ft 253 kts 96°
2026-05-05 18:56 47.50108 8.08243 10991 ft 252 kts 116°
2026-05-05 18:56 47.49041 8.10267 10992 ft 251 kts 139°
2026-05-05 18:56 47.47545 8.11563 10992 ft 250 kts 162°
2026-05-05 18:57 47.45836 8.11930 10994 ft 249 kts 183°
2026-05-05 18:57 47.44112 8.11847 10990 ft 250 kts 169°
2026-05-05 18:57 47.42586 8.13104 10991 ft 260 kts 135°
2026-05-05 18:57 47.41467 8.15244 11003 ft 267 kts 125°
2026-05-05 18:58 47.40421 8.17539 11012 ft 272 kts 123°
2026-05-05 18:58 47.39383 8.19904 11010 ft 275 kts 123°
2026-05-05 18:58 47.38353 8.22251 11011 ft 271 kts 123°
2026-05-05 18:58 47.37337 8.24582 11010 ft 269 kts 123°
2026-05-05 18:59 47.36321 8.26900 11011 ft 269 kts 123°
2026-05-05 18:59 47.35311 8.29218 11012 ft 268 kts 123°
2026-05-05 18:59 47.34301 8.31522 11010 ft 267 kts 123°
2026-05-05 18:59 47.33422 8.33885 10999 ft 266 kts 109°
2026-05-05 19:00 47.33140 8.36587 10992 ft 267 kts 95°
2026-05-05 19:00 47.33008 8.39323 10993 ft 268 kts 94°
2026-05-05 19:00 47.32909 8.42063 10993 ft 269 kts 93°
2026-05-05 19:00 47.32807 8.44817 10994 ft 269 kts 93°
2026-05-05 19:01 47.32713 8.47571 10995 ft 269 kts 93°
2026-05-05 19:01 47.32612 8.50350 10698 ft 271 kts 93°
2026-05-05 19:01 47.32517 8.53116 10325 ft 270 kts 93°
2026-05-05 19:01 47.32417 8.55867 9952 ft 269 kts 93°
2026-05-05 19:02 47.32323 8.58617 9577 ft 268 kts 93°
2026-05-05 19:02 47.32224 8.61349 9204 ft 265 kts 93°
2026-05-05 19:02 47.32130 8.64042 8829 ft 261 kts 93°
2026-05-05 19:02 47.32034 8.66702 8452 ft 258 kts 93°
2026-05-05 19:03 47.32255 8.69297 8066 ft 255 kts 75°
2026-05-05 19:03 47.32736 8.71770 7695 ft 253 kts 74°
2026-05-05 19:03 47.33236 8.74252 7319 ft 252 kts 73°
2026-05-05 19:03 47.33739 8.76709 7124 ft 249 kts 73°
2026-05-05 19:04 47.34245 8.79173 6846 ft 251 kts 73°
2026-05-05 19:04 47.34747 8.81627 6472 ft 248 kts 73°
2026-05-05 19:04 47.35244 8.84045 6137 ft 242 kts 73°
2026-05-05 19:04 47.35707 8.86309 6117 ft 220 kts 73°
2026-05-05 19:05 47.36135 8.88375 6110 ft 201 kts 73°
2026-05-05 19:05 47.36544 8.90361 6110 ft 203 kts 72°
2026-05-05 19:05 47.37370 8.92010 6106 ft 205 kts 32°
2026-05-05 19:05 47.38720 8.92713 5995 ft 208 kts 14°
2026-05-05 19:06 47.40106 8.93254 5744 ft 204 kts 14°
2026-05-05 19:06 47.41485 8.93447 5473 ft 199 kts 346°
2026-05-05 19:06 47.42590 8.92337 5198 ft 194 kts 303°
2026-05-05 19:06 47.42873 8.90490 5111 ft 183 kts 261°
2026-05-05 19:07 47.42549 8.88593 5110 ft 196 kts 261°
2026-05-05 19:07 47.42851 8.86661 5114 ft 193 kts 301°
2026-05-05 19:07 47.43570 8.85080 5110 ft 178 kts 302°
2026-05-05 19:07 47.44254 8.83575 5112 ft 177 kts 304°
2026-05-05 19:08 47.44934 8.82085 5108 ft 177 kts 298°
2026-05-05 19:08 47.45077 8.80335 5108 ft 176 kts 256°
2026-05-05 19:08 47.44690 8.78534 4842 ft 188 kts 251°
2026-05-05 19:08 47.44354 8.76611 4313 ft 194 kts 261°
2026-05-05 19:09 47.44366 8.74752 3993 ft 170 kts 276°
2026-05-05 19:09 47.44499 8.73053 3747 ft 162 kts 275°
2026-05-05 19:09 47.44629 8.71395 3509 ft 161 kts 276°
2026-05-05 19:09 47.44749 8.69759 3272 ft 159 kts 275°
2026-05-05 19:10 47.44867 8.68141 3038 ft 157 kts 276°
2026-05-05 19:10 47.44981 8.66537 2806 ft 156 kts 275°
2026-05-05 19:10 47.45094 8.65003 2604 ft 141 kts 276°
2026-05-05 19:10 47.45188 8.63638 2392 ft 127 kts 274°
2026-05-05 19:11 47.45283 8.62395 2202 ft 117 kts 276°
2026-05-05 19:11 47.45358 8.61229 2026 ft 112 kts 274°
2026-05-05 19:11 47.45451 8.60093 1861 ft 111 kts 275°
2026-05-05 19:11 47.45521 8.58980 1732 ft 107 kts 274°
2026-05-05 19:12 47.45598 8.57892 1571 ft 105 kts 275°
2026-05-05 19:12 47.45675 8.56821 1403 ft 103 kts 275°
2026-05-05 19:12 47.45739 8.55918 1394 ft 59 kts 276°
2026-05-05 19:12 47.45771 8.55460 1390 ft 29 kts 275°
2026-05-05 19:13 47.45767 8.55290 1389 ft 8 kts 220°
2026-05-05 19:13 47.45721 8.55289 1390 ft 3 kts 158°
2026-05-05 19:13 47.45718 8.55292 1391 ft 1 kts 157°
2026-05-05 19:13 47.45714 8.55294 1391 ft 4 kts 158°
2026-05-05 19:14 47.45711 8.55295 1391 ft 0 kts 158°
2026-05-05 19:14 47.45709 8.55297 1391 ft 3 kts 158°
2026-05-05 19:15 47.45674 8.55313 1392 ft 9 kts 164°
2026-05-05 19:15 47.45589 8.55361 1392 ft 15 kts 155°
2026-05-05 19:15 47.45488 8.55430 1392 ft 17 kts 154°
2026-05-05 19:15 47.45377 8.55505 1392 ft 18 kts 155°
2026-05-05 19:16 47.45258 8.55575 1392 ft 19 kts 168°
2026-05-05 19:16 47.45132 8.55647 1392 ft 20 kts 154°
2026-05-05 19:16 47.45003 8.55737 1392 ft 21 kts 153°
2026-05-05 19:16 47.44950 8.55839 1392 ft 9 kts 99°
2026-05-05 19:17 47.44933 8.55938 1392 ft 9 kts 148°
2026-05-05 19:17 47.44867 8.55986 1392 ft 12 kts 156°
2026-05-05 19:17 47.44788 8.56041 1392 ft 13 kts 155°
2026-05-05 19:17 47.44699 8.56100 1392 ft 10 kts 154°
2026-05-05 19:18 47.44688 8.56150 1392 ft 9 kts 62°
2026-05-05 19:18 47.44713 8.56229 1392 ft 8 kts 65°
2026-05-05 19:18 47.44718 8.56245 1392 ft 0 kts 65°